Chandler, OK

10:26 AM CST on December 13, 2019 (GMT -0600)
Chandler Municipal

Weather History for KCQB - November, 2019

Change the Weather History Date:

Wednesday, November 13, 2019

  Actual Average (KCUH) Record (KCUH)
Temperature  
Mean Temperature 35 °F -  
Max Temperature 51 °F 59 °F 79 °F (1971)
Min Temperature 19 °F 37 °F 11 °F (1986)
Degree Days  
Heating Degree Days 30    
Moisture  
Dew Point 15 °F    
Average Humidity 49    
Maximum Humidity 77    
Minimum Humidity 22    
Precipitation  
Precipitation 0.00 in - - ()
Sea Level Pressure  
Sea Level Pressure 30.13 in    
Wind  
Wind Speed 9 mph ()    
Max Wind Speed 22 mph    
Max Gust Speed 28 mph    
Visibility 10.0 miles    
Events      
Averages and records for this station are not official NWS values.
T = Trace of Precipitation, MM = Missing Value Source: Averaged Metar Reports

Daily Weather History Graph

Daily Weather History Graph

Search for Another Location

Airport or City:

Astronomy

Nov. 13, 2019 Rise Set
Actual Time 7:00 AM CST 5:21 PM CST
Civil Twilight 6:33 AM CST 5:48 PM CST
Nautical Twilight 6:03 AM CST 6:19 PM CST
Astronomical Twilight 5:32 AM CST 6:49 PM CST
Moon 6:26 PM CST 7:55 AM CST
Length of Visible Light 11h 14m
Length of Day
10h 20m
Full, 99% of the Moon is Illuminated
Nov 13
Full
Nov 19
Last Quarter
Nov 26
New
Dec 4
First Quarter
Dec 11
Full

Hourly Weather History & Observations

Time (CST) Temp. Windchill Dew Point Humidity Pressure Visibility Wind Dir Wind Speed Gust Speed Precip Events Conditions
12:15 AM 20.8 °F 13.2 °F 12.0 °F 69% 30.29 in 10.0 mi SE 5.8 mph - N/A   Clear
12:35 AM 21.0 °F 10.6 °F 12.0 °F 68% 30.28 in 10.0 mi SSE 9.2 mph - N/A   Clear
12:55 AM 20.8 °F 12.1 °F 12.0 °F 69% 30.27 in 10.0 mi SSE 6.9 mph - N/A   Clear
1:15 AM 20.8 °F 12.1 °F 12.4 °F 70% 30.27 in 10.0 mi SSE 6.9 mph - N/A   Clear
1:35 AM 20.7 °F 11.0 °F 12.7 °F 71% 30.25 in 10.0 mi SSE 8.1 mph - N/A   Clear
1:55 AM 20.7 °F 11.0 °F 12.7 °F 71% 30.24 in 10.0 mi SSE 8.1 mph - N/A   Clear
2:35 AM 20.1 °F 9.5 °F 12.7 °F 73% 30.23 in 10.0 mi SSE 9.2 mph - N/A   Clear
2:55 AM 19.4 °F 7.9 °F 12.2 °F 74% 30.21 in 10.0 mi SE 10.4 mph - N/A   Clear
3:15 AM 19.9 °F 11.1 °F 12.9 °F 74% 30.21 in 10.0 mi SE 6.9 mph - N/A   Clear
3:35 AM 19.6 °F 13.0 °F 13.3 °F 77% 30.21 in 10.0 mi SSE 4.6 mph - N/A   Clear
3:55 AM 21.7 °F 11.5 °F 13.3 °F 70% 30.20 in 10.0 mi SSE 9.2 mph - N/A   Clear
4:15 AM 23.0 °F 11.7 °F 13.3 °F 66% 30.19 in 10.0 mi SSE 11.5 mph - N/A   Clear
4:55 AM 24.1 °F 12.5 °F 13.5 °F 64% 30.18 in 10.0 mi SSE 12.7 mph - N/A   Clear
5:15 AM 23.9 °F 13.5 °F 13.8 °F 65% 30.17 in 10.0 mi SSE 10.4 mph - N/A   Clear
5:35 AM 23.5 °F 13.7 °F 14.2 °F 67% 30.17 in 10.0 mi SSE 9.2 mph - N/A   Clear
5:55 AM 23.9 °F 12.9 °F 14.4 °F 67% 30.16 in 10.0 mi SSE 11.5 mph - N/A   Clear
6:15 AM 23.9 °F 14.2 °F 14.4 °F 67% 30.17 in 10.0 mi South 9.2 mph - N/A   Clear
6:35 AM 23.5 °F 14.5 °F 14.5 °F 69% 30.17 in 10.0 mi South 8.1 mph - N/A   Clear
6:55 AM 23.5 °F 13.7 °F 14.7 °F 69% 30.16 in 10.0 mi South 9.2 mph - N/A   Clear
7:35 AM 25.3 °F 15.3 °F 15.1 °F 65% 30.17 in 10.0 mi South 10.4 mph 17.3 mph N/A   Clear
7:55 AM 27.0 °F 16.1 °F 15.6 °F 62% 30.17 in 10.0 mi South 12.7 mph - N/A   Clear
8:15 AM 28.2 °F 17.7 °F 15.8 °F 60% 30.17 in 10.0 mi South 12.7 mph 19.6 mph N/A   Clear
8:35 AM 29.3 °F 17.7 °F 16.0 °F 58% 30.16 in 10.0 mi South 16.1 mph 25.3 mph N/A   Clear
8:55 AM 30.9 °F 20.2 °F 16.2 °F 54% 30.16 in 10.0 mi South 15.0 mph 23.0 mph N/A   Clear
9:15 AM 32.4 °F 22.1 °F 16.3 °F 52% 30.16 in 10.0 mi South 15.0 mph - N/A   Clear
9:55 AM 35.6 °F 26.6 °F 15.8 °F 44% 30.15 in 10.0 mi South 13.8 mph 19.6 mph N/A   Clear
10:35 AM 37.9 °F 28.2 °F 15.3 °F 40% 30.14 in 10.0 mi South 18.4 mph 24.2 mph N/A   Clear
10:55 AM 40.5 °F 32.1 °F 16.0 °F 37% 30.12 in 10.0 mi South 16.1 mph 21.9 mph N/A   Clear
11:15 AM 42.3 °F 33.8 °F 15.3 °F 34% 30.12 in 10.0 mi South 18.4 mph - N/A   Clear
11:35 AM 44.1 °F 35.4 °F 13.5 °F 29% 30.10 in 10.0 mi South 21.9 mph 25.3 mph N/A   Clear
11:55 AM 45.0 °F 38.5 °F 12.9 °F 27% 30.09 in 10.0 mi South 13.8 mph 24.2 mph N/A   Clear
12:15 PM 46.6 °F - 13.8 °F 27% 30.07 in 10.0 mi South 12.7 mph 24.2 mph N/A   Clear
12:35 PM 47.3 °F - 13.1 °F 25% 30.06 in 10.0 mi South 16.1 mph - N/A   Clear
12:55 PM 48.6 °F - 13.1 °F 24% 30.05 in 10.0 mi South 13.8 mph 21.9 mph N/A   Clear
1:15 PM 48.9 °F - 13.6 °F 24% 30.03 in 10.0 mi South 16.1 mph 23.0 mph N/A   Clear
1:35 PM 49.8 °F - 14.2 °F 24% 30.03 in 10.0 mi South 19.6 mph 26.5 mph N/A   Clear
1:55 PM 50.4 °F - 14.2 °F 24% 30.01 in 10.0 mi South 17.3 mph 23.0 mph N/A   Clear
2:15 PM 50.7 °F - 13.3 °F 22% 30.02 in 10.0 mi South 17.3 mph 27.6 mph N/A   Clear
2:35 PM 51.4 °F - 14.0 °F 23% 30.00 in 10.0 mi South 17.3 mph 25.3 mph N/A   Clear
2:55 PM 51.8 °F - 15.1 °F 23% 29.99 in 10.0 mi SSE 17.3 mph 21.9 mph N/A   Clear
3:35 PM 51.4 °F - 15.4 °F 24% 29.99 in 10.0 mi South 13.8 mph - N/A   Clear
3:55 PM 50.7 °F - 15.4 °F 25% 29.99 in 10.0 mi SSW 16.1 mph - N/A   Clear
4:15 PM 50.4 °F - 15.6 °F 25% 30.01 in 10.0 mi SSW 10.4 mph - N/A   Clear
4:35 PM 50.0 °F - 16.0 °F 26% 30.02 in 10.0 mi SSW 9.2 mph - N/A   Clear
5:15 PM 46.4 °F 44.3 °F 17.1 °F 31% 30.04 in 10.0 mi SSW 4.6 mph - N/A   Clear
5:35 PM 43.2 °F 40.5 °F 18.3 °F 37% 30.05 in 10.0 mi South 4.6 mph - N/A   Clear
5:55 PM 44.1 °F 42.5 °F 17.6 °F 35% 30.06 in 10.0 mi SSW 3.5 mph - N/A   Clear
6:15 PM 41.7 °F 39.8 °F 18.5 °F 39% 30.07 in 10.0 mi South 3.5 mph - N/A   Clear
6:35 PM 42.3 °F 39.4 °F 17.8 °F 37% 30.07 in 10.0 mi South 4.6 mph - N/A   Clear
6:55 PM 41.9 °F 37.5 °F 18.1 °F 38% 30.07 in 10.0 mi South 6.9 mph - N/A   Clear
7:15 PM 40.8 °F 36.9 °F 18.1 °F 40% 30.09 in 10.0 mi South 5.8 mph - N/A   Clear
7:55 PM 37.9 °F 32.7 °F 19.4 °F 47% 30.10 in 10.0 mi South 6.9 mph - N/A   Clear
8:55 PM 36.5 °F 31.8 °F 18.9 °F 49% 30.11 in 10.0 mi South 5.8 mph - N/A   Clear
9:15 PM 35.6 °F 30.7 °F 19.2 °F 51% 30.12 in 10.0 mi South 5.8 mph - N/A   Clear
9:35 PM 34.0 °F 28.8 °F 19.8 °F 56% 30.13 in - South 5.8 mph - N/A   Clear
9:55 PM 34.9 °F 29.9 °F 19.4 °F 53% 30.13 in 10.0 mi South 5.8 mph - N/A   Clear
10:15 PM 35.4 °F 30.5 °F 19.8 °F 53% 30.13 in 10.0 mi South 5.8 mph - N/A   Clear
10:35 PM 34.5 °F 30.4 °F 19.9 °F 55% 30.14 in 10.0 mi South 4.6 mph - N/A   Clear
11:15 PM 32.5 °F 28.1 °F 20.7 °F 62% 30.14 in 10.0 mi South 4.6 mph - N/A   Clear
11:35 PM 33.8 °F 29.6 °F 19.9 °F 57% 30.14 in 10.0 mi South 4.6 mph - N/A   Clear
11:55 PM 33.8 °F 30.8 °F 19.8 °F 56% 30.14 in 10.0 mi South 3.5 mph - N/A   Clear